TITAN 3C TRANSTAGE DEB, 36983

Orbit data source: Space-Track

TITAN 3C TRANSTAGE DEB, 36983 is space debris originally from a launch on Tue, 21 Dec 1965 UTC launched from the Air Force Eastern Test Range (AFETR). Debris objects in space refer to the collection of defunct objects orbiting the Earth. Examples of debris include non-operational satellites, rocket bodies, and fragments generated from explosions, collisions, or faulty payload assembly.

Loading next visibility...
Identifier
36983, 1965-108DP
Orbit
Active
Country
Flag of USUS
Related business
Manufacturer
Unknown
Mission
Spacecraft
Bus & Motor
Unknown
Mass
Unknown
Launch date (UTC)
1965-12-21 (60 years ago)
Launch vehicle
Unknown
Launch site
Air Force Eastern Test Range (AFETR)
Object type
Payload
Rocket body
Debris
Shape & HBR
Unknown shape, 0.3 m
Radar Cross Section
Medium (>0.1 m² and <1 m²)

Expand to show TLE details & history
Last TLE update: 14 hours ago

TLE from 14 hours ago
0 TITAN 3C TRANSTAGE DEB
1 36983U 65108DP  26036.66835635  .00085936  00000-0  20928-2 0  9992
2 36983  27.0255 304.9354 4416711  32.6533 348.2829  6.75659204592215
Epoch: 2026-02-05T16:02Z
TLE epoch observation values (Epoch: 2026-02-05T16:02:25.988Z)
Latitude
-0°
Longitude
-71.49016°
Altitude
554.301 km
Speed
9.015 km/s
True Right ascension
20h 19m 44s
True Declination
0° 00' 00"
Sunlit
Object was in daylight at epoch
Visualization orbit readout
Latitude
Unknown
Longitude
Unknown
Altitude
Unknown
Speed
Unknown
Apparent Right ascension
Unknown
Apparent Declination
Unknown
Sunlit
N/A
Visualization observer readout
Local Sidereal Time
07:38:45
Azimuth
Unknown
Elevation
Unknown
Doppler factor
Unknown
Orbital elements
Apogee altitude
10,666.224 km
Perigee altitude
222.786 km
Semi-major axis
11,822.642 km
Eccentricity
0.44167
Inclination
27.0255°
RAAN
304.9354°
Arg. of periapsis
32.6533°
True anomaly
327.38786°
Mean anomaly
348.2829°
Eccentric anomaly
339.3646°
Mean motion
1.68838 °/min
Orbital period
213.22 mins
BSTAR
0.0020928
Loading maneuver chart data...
Computing Atmospheric mass density...

Documentation

Showing up to 5 results
|